EW2549 Weather Reports


Display with metric or nautical units.
time (UTC)temp
F
wind
direction
speed
MPH
gust
MPH
rain 1hr
in
rain 24hr
in
rain mn
in
humidity
%
barometer
mb
20260831101502 59 280 0.0 0.0 0.00 0.02 0.00 73 1008.2
20260831100106 60 280 0.0 0.0 0.00 0.02 0.00 71 1008.1
20260831094558 60 280 0.0 0.0 0.00 0.02 0.00 70 1007.9
20260831093155 60 280 0.0 0.0 0.00 0.02 0.00 70 1007.7
20260831091554 61 280 0.0 0.0 0.00 0.02 0.00 69 1007.6
20260831090052 61 280 0.0 0.0 0.00 0.02 0.00 68 1007.6
20260831084559 62 280 0.0 0.0 0.00 0.02 0.00 68 1007.5
20260831083050 62 280 0.0 0.0 0.00 0.02 0.00 68 1007.7
20260831081605 63 216 0.0 0.0 0.00 0.02 0.00 69 1007.7
20260831080042 63 216 0.0 0.0 0.00 0.02 0.00 68 1007.8
20260831074544 64 192 0.0 0.0 0.00 0.02 0.00 67 1007.9
20260831073101 65 119 0.0 0.0 0.00 0.02 0.00 66 1008.2
20260831071532 65 119 0.0 0.0 0.00 0.02 0.00 64 1008.4
20260831070033 66 119 0.0 0.0 0.00 0.02 0.00 61 1008.4
20260831064534 68 123 0.0 0.0 0.00 0.02 0.00 58 1008.4
20260831063023 69 122 0.0 0.0 0.00 0.02 0.00 54 1008.5
20260831061530 69 122 0.0 11.0 0.00 0.02 0.00 47 1008.6
20260831060016 69 183 1.0 5.0 0.00 0.02 0.00 45 1008.5
20260831054515 69 240 0.0 0.0 0.00 0.02 0.02 48 1008.6
20260831053021 69 280 0.0 14.0 0.00 0.02 0.02 48 1008.9
20260831051514 68 245 2.0 14.0 0.00 0.02 0.02 50 1008.8
20260831050033 65 236 0.0 3.0 0.00 0.02 0.02 58 1009.5
20260831044513 64 248 0.0 0.0 0.00 0.02 0.02 71 1009.7
20260831043013 62 215 0.0 0.0 0.00 0.02 0.02 72 1009.4
20260831041507 62 80 0.0 0.0 0.00 0.02 0.02 73 1009.0
20260831040018 62 80 0.0 0.0 0.00 0.02 0.02 76 1008.7
20260831034506 62 80 0.0 0.0 0.00 0.02 0.02 75 1008.5
20260831033005 62 80 0.0 0.0 0.00 0.02 0.02 75 1008.6
20260831030104 63 80 0.0 0.0 0.00 0.02 0.02 73 1007.9
20260831024559 64 80 0.0 0.0 0.00 0.02 0.02 70 1008.1
20260831023057 65 80 0.0 0.0 0.00 0.02 0.02 67 1007.9
20260831021558 67 80 0.0 0.0 0.00 0.02 0.02 66 1007.7
20260831020054 68 80 0.0 0.0 0.00 0.02 0.02 63 1007.5
20260831014554 69 80 0.0 0.0 0.00 0.02 0.02 61 1007.4
20260831013055 70 80 0.0 0.0 0.00 0.02 0.02 59 1007.1
20260831011552 71 80 0.0 0.0 0.00 0.02 0.02 58 1007.0
20260831010055 72 80 0.0 0.0 0.00 0.02 0.02 55 1007.0
20260831004552 73 80 0.0 0.0 0.00 0.02 0.02 54 1007.0
20260831003052 73 80 0.0 0.0 0.00 0.02 0.02 52 1007.2
20260831001551 73 78 0.0 0.0 0.00 0.02 0.02 51 1007.1
20260831000058 72 74 0.0 2.0 0.00 0.02 0.02 51 1007.0
20260830234555 73 65 0.0 2.0 0.00 0.02 0.02 50 1007.1
20260830233059 73 136 0.0 1.0 0.00 0.02 0.02 52 1006.9
20260830231549 73 116 0.0 0.0 0.00 0.02 0.02 50 1006.5
20260830230048 73 69 0.0 0.0 0.00 0.02 0.02 51 1006.4
20260830224548 73 93 0.0 0.0 0.00 0.02 0.02 50 1006.5
20260830223050 73 93 0.0 0.0 0.00 0.02 0.02 50 1006.7
20260830221550 72 193 0.0 0.0 0.00 0.02 0.02 46 1006.9
20260830220059 72 209 0.0 10.0 0.00 0.02 0.02 44 1007.1
20260830214547 69 281 5.0 13.0 0.00 0.03 0.02 49 1007.1
20260830213046 69 250 12.0 23.0 0.02 0.03 0.02 51 1007.1
20260830211549 67 239 2.0 16.0 0.02 0.03 0.02 55 1007.2
20260830210044 66 257 3.0 12.0 0.02 0.03 0.02 60 1007.4
20260830204554 67 267 5.0 15.0 0.02 0.03 0.02 61 1007.1
20260830203042 74 293 6.0 25.0 0.00 0.01 0.00 41 1007.2
20260830201548 80 288 2.0 11.0 0.00 0.01 0.00 42 1006.3
20260830200137 82 292 2.0 8.0 0.00 0.01 0.00 35 1005.7
20260830194540 83 263 0.0 4.0 0.00 0.01 0.00 36 1004.7
20260830193035 83 95 0.0 4.0 0.00 0.01 0.00 35 1004.3
20260830191612 82 134 0.0 5.0 0.00 0.01 0.00 35 1004.2
20260830190037 81 84 0.0 3.0 0.00 0.01 0.00 36 1004.3
20260830184536 81 120 1.0 10.0 0.00 0.01 0.00 36 1004.3
20260830183033 82 53 0.0 8.0 0.00 0.01 0.00 36 1004.5
20260830181530 82 92 0.0 10.0 0.00 0.01 0.00 36 1004.7
20260830180035 82 142 0.0 4.0 0.00 0.01 0.00 37 1004.9
20260830174531 82 99 0.0 7.0 0.00 0.01 0.00 35 1005.0
20260830173024 81 79 1.0 8.0 0.00 0.01 0.00 39 1005.2
20260830171523 80 101 0.0 7.0 0.00 0.01 0.00 39 1005.4
20260830170021 80 124 0.0 4.0 0.00 0.01 0.00 39 1005.4
20260830164517 79 116 0.0 2.0 0.00 0.01 0.00 44 1005.6
20260830163032 78 126 0.0 2.0 0.00 0.01 0.00 44 1005.5
20260830161513 76 223 0.0 5.0 0.00 0.01 0.00 42 1005.6
20260830160007 73 315 0.0 0.0 0.00 0.01 0.00 47 1005.7
20260830154502 71 308 0.0 0.0 0.00 0.01 0.00 49 1005.9
20260830153101 69 54 0.0 0.0 0.00 0.01 0.00 54 1005.8
20260830151553 68 256 0.0 0.0 0.00 0.01 0.00 62 1006.1
20260830150050 66 256 0.0 0.0 0.00 0.01 0.00 61 1006.2
20260830144559 65 256 0.0 0.0 0.00 0.01 0.00 67 1005.7
20260830143046 64 256 0.0 0.0 0.00 0.01 0.00 68 1005.5
20260830141543 63 256 0.0 0.0 0.00 0.01 0.00 69 1005.7
20260830140043 62 221 0.0 0.0 0.00 0.01 0.00 69 1005.8
20260830133051 60 221 0.0 0.0 0.00 0.01 0.00 70 1005.5
20260830131551 59 221 0.0 0.0 0.00 0.01 0.00 69 1005.3
20260830130055 58 221 0.0 0.0 0.00 0.01 0.00 68 1005.2
20260830124537 58 221 0.0 0.0 0.00 0.01 0.00 69 1005.2
20260830123037 58 221 0.0 0.0 0.00 0.01 0.00 67 1004.9
20260830121534 58 221 0.0 0.0 0.00 0.01 0.00 68 1004.6
20260830120044 58 221 0.0 0.0 0.00 0.01 0.00 67 1004.2
20260830114534 59 221 0.0 0.0 0.00 0.01 0.00 67 1004.1
20260830113030 59 221 0.0 0.0 0.00 0.01 0.00 68 1004.1
20260830111532 59 221 0.0 0.0 0.00 0.01 0.00 67 1004.2
20260830110031 59 221 0.0 0.0 0.00 0.01 0.00 66 1004.2
20260830104527 59 221 0.0 0.0 0.00 0.01 0.00 65 1004.2
20260830103029 59 221 0.0 0.0 0.00 0.01 0.00 66 1004.2